Flag for Australia Weather past 2 weeks in Traralgon, Victoria, Australia

Now
68 °F

Mild.


Feels Like: 68 °F
Forecast: 49 / 81 °F
Wind: 5 mph from West

Location: Latrobe Valley Airport

Current Time: Dec 27, 2014 at 1:28:14 PM

Latest Report: Dec 27, 2014 at 12:00 PM


Visibility: N/A

Pressure: 30.14 "Hg

Humidity: 44%

Dew point: 45 °F

Location of TraralgonLocation

Historic Weather in Traralgon — Graph

°F

Traralgon temperature yesterday

Maximum temperature yesterday: 66 °F (at 3:00 PM)
Minimum temperature yesterday: 49 °F (at 6:00 AM)
Average temperature yesterday: 58 °F

Past Weeks' High & Low Weather Summary

 TemperatureHumidityPressure
High92 °F (Dec 16, 4:00 PM)100% (Dec 14, 4:00 AM)30.19 "Hg (Dec 14, 4:00 AM)
Low41 °F (Dec 27, 6:00 AM)15% (Dec 16, 4:00 PM)29.21 "Hg (Dec 16, 4:00 PM)
Average64 °F72%29.86 "Hg
* Reported Dec 12 12:00 Noon — Dec 27 12:00 Noon, Traralgon, Weather by CustomWeather, © 2014

Note: Actual official high and low records may vary slightly from our data, if they occured in-between our weather recording intervals... More about our weather records

Advertising

Traralgon weather history for previous 24 hours

 ConditionsComfort  
Time TempWeatherWind HumidityBarometerVisibility
12:00 PM
Dec 27
68 °FMild.5 mph44%30.14 "HgN/A
10:00 AM61 °FRefreshingly cool.2 mph60%30.15 "HgN/A
9:00 AM57 °FCool.2 mph76%30.16 "HgN/A
7:00 AM45 °FCool.No wind100%30.15 "HgN/A
6:00 AM41 °FQuite cool.No wind99%30.15 "HgN/A
4:00 AM43 °FQuite cool.No wind98%30.11 "HgN/A
3:00 AM46 °FCool.No wind94%30.12 "HgN/A
1:00 AM45 °FCool.5 mph92%30.12 "HgN/A
12:00 AM49 °FCool.2 mph87%30.12 "HgN/A
10:00 PM
Dec 26
52 °FCool.7 mph76%30.10 "HgN/A
9:00 PM56 °FCool.10 mph63%30.08 "HgN/A
7:00 PM64 °FMild.14 mph48%30.03 "HgN/A
6:00 PM66 °FPassing clouds.17 mph49%30.01 "HgN/A
4:00 PM65 °FMild.17 mph45%30.00 "HgN/A
3:00 PM66 °FPartly sunny.18 mph48%30.00 "HgN/A
1:00 PM62 °FCool.13 mph60%30.00 "HgN/A
Weather by CustomWeather, © 2014

See weather overviewHow to use our weather pages